• In Belarus
  • List of Countries
  • For 7 days
  • Water Temperature
  • Satellite Maps
  • Weather Map
  • Weather Widgets
  • user-avatar
    Login

    Hourly Weather Katerini

    Today, 25 June, Monday

    Time Temperature Precipitation Wind Pressure Humidity
    00:00 +21°C° 0 mm 1 mps 758 mmHg 71%
    01:00 +20°C° 0 mm 1 mps 758 mmHg 72%
    02:00 +20°C° 0 mm 1 mps 758 mmHg 73%
    03:00 +20°C° 0 mm 1 mps 758 mmHg 74%
    04:00 +20°C° 0 mm 1 mps 758 mmHg 75%
    05:00 +20°C° 0 mm 1 mps 758 mmHg 77%
    06:00 +21°C° 0 mm 1 mps 758 mmHg 74%
    07:00 +21°C° 0 mm 1 mps 758 mmHg 71%
    08:00 +21°C° 0 mm 2 mps 758 mmHg 69%
    09:00 +23°C° 0.1 mm 2 mps 758 mmHg 67%
    10:00 +24°C° 0.1 mm 2 mps 758 mmHg 65%
    11:00 +24°C° 0.1 mm 2 mps 758 mmHg 64%
    12:00 +24°C° 0.3 mm 2 mps 758 mmHg 64%
    13:00 +24°C° 0.3 mm 2 mps 757 mmHg 64%
    14:00 +25°C° 0.3 mm 2 mps 757 mmHg 64%
    15:00 +25°C° 0.3 mm 2 mps 757 mmHg 64%
    16:00 +25°C° 0.3 mm 2 mps 757 mmHg 64%
    17:00 +25°C° 0.3 mm 2 mps 756 mmHg 63%
    18:00 +24°C° 0.2 mm 2 mps 757 mmHg 67%
    19:00 +23°C° 0.2 mm 2 mps 757 mmHg 70%
    20:00 +21°C° 0.2 mm 2 mps 757 mmHg 73%
    21:00 +21°C° 0.2 mm 2 mps 757 mmHg 75%
    22:00 +20°C° 0.2 mm 2 mps 757 mmHg 76%
    23:00 +20°C° 0.2 mm 2 mps 757 mmHg 77%

    Tomorrow, 26 June, Tuesday

    Time Temperature Precipitation Wind Pressure Humidity
    00:00 +20°C° 0.7 mm 2 mps 757 mmHg 79%
    01:00 +20°C° 0.7 mm 2 mps 756 mmHg 80%
    02:00 +19°C° 0.7 mm 2 mps 756 mmHg 82%
    03:00 +19°C° 1.2 mm 3 mps 756 mmHg 83%
    04:00 +19°C° 1.2 mm 3 mps 755 mmHg 85%
    05:00 +19°C° 1.2 mm 3 mps 755 mmHg 87%
    06:00 +19°C° 1.3 mm 3 mps 755 mmHg 86%
    07:00 +19°C° 1.3 mm 3 mps 754 mmHg 85%
    08:00 +20°C° 1.3 mm 4 mps 754 mmHg 85%
    09:00 +20°C° 2.3 mm 4 mps 754 mmHg 83%
    10:00 +20°C° 2.3 mm 4 mps 754 mmHg 82%
    11:00 +21°C° 2.3 mm 5 mps 754 mmHg 80%
    12:00 +21°C° 4.1 mm 5 mps 753 mmHg 81%
    13:00 +21°C° 4.1 mm 5 mps 753 mmHg 81%
    14:00 +21°C° 4.1 mm 5 mps 753 mmHg 81%
    15:00 +21°C° 5.1 mm 4 mps 753 mmHg 84%
    16:00 +21°C° 5.1 mm 4 mps 752 mmHg 86%
    17:00 +20°C° 5.1 mm 4 mps 752 mmHg 89%
    18:00 +20°C° 2.6 mm 3 mps 752 mmHg 90%
    19:00 +20°C° 2.6 mm 3 mps 752 mmHg 91%
    20:00 +20°C° 2.6 mm 3 mps 753 mmHg 92%
    21:00 +20°C° 1.8 mm 3 mps 753 mmHg 92%
    22:00 +20°C° 1.8 mm 3 mps 753 mmHg 92%
    23:00 +19°C° 1.8 mm 3 mps 753 mmHg 92%

    Day after tomorrow, 27 June, Wednesday

    Time Temperature Precipitation Wind Pressure Humidity
    00:00 +19°C° 0.9 mm 3 mps 753 mmHg 92%
    01:00 +19°C° 0.9 mm 3 mps 753 mmHg 91%
    02:00 +19°C° 0.9 mm 3 mps 753 mmHg 91%
    03:00 +19°C° 0.4 mm 3 mps 752 mmHg 91%
    04:00 +19°C° 0.4 mm 3 mps 752 mmHg 90%
    05:00 +19°C° 0.4 mm 3 mps 752 mmHg 90%
    06:00 +20°C° 0.1 mm 3 mps 752 mmHg 86%
    07:00 +20°C° 0.1 mm 3 mps 752 mmHg 83%
    08:00 +21°C° 0.1 mm 3 mps 752 mmHg 79%
    09:00 +22°C° 0.2 mm 3 mps 752 mmHg 75%
    10:00 +24°C° 0.2 mm 3 mps 752 mmHg 70%
    11:00 +25°C° 0.2 mm 3 mps 751 mmHg 66%
    12:00 +26°C° 0.6 mm 2 mps 751 mmHg 64%
    13:00 +27°C° 0.6 mm 2 mps 751 mmHg 62%
    14:00 +27°C° 0.6 mm 2 mps 751 mmHg 60%
    15:00 +27°C° 0.8 mm 2 mps 751 mmHg 61%
    16:00 +27°C° 0.8 mm 2 mps 751 mmHg 62%
    17:00 +27°C° 0.8 mm 2 mps 750 mmHg 63%
    18:00 +26°C° 0.8 mm 1 mps 751 mmHg 67%
    19:00 +25°C° 0.8 mm 1 mps 751 mmHg 71%
    20:00 +23°C° 0.8 mm 1 mps 751 mmHg 75%
    21:00 +23°C° 0.4 mm 2 mps 752 mmHg 77%
    22:00 +21°C° 0.4 mm 2 mps 752 mmHg 78%
    23:00 +21°C° 0.4 mm 3 mps 752 mmHg 79%

    28 June, Thursday

    Time Temperature Precipitation Wind Pressure Humidity
    00:00 +21°C° 0.2 mm 3 mps 752 mmHg 80%
    01:00 +20°C° 0.2 mm 3 mps 752 mmHg 80%
    02:00 +20°C° 0.2 mm 3 mps 752 mmHg 81%
    03:00 +20°C° 0.3 mm 3 mps 752 mmHg 81%
    04:00 +19°C° 0.3 mm 3 mps 753 mmHg 82%
    05:00 +19°C° 0.3 mm 3 mps 753 mmHg 82%
    06:00 +20°C° 0.1 mm 3 mps 753 mmHg 78%
    07:00 +21°C° 0.1 mm 3 mps 753 mmHg 75%
    08:00 +22°C° 0.1 mm 3 mps 753 mmHg 71%
    09:00 +24°C° 0 mm 3 mps 753 mmHg 65%
    10:00 +26°C° 0 mm 2 mps 753 mmHg 59%
    11:00 +27°C° 0 mm 2 mps 753 mmHg 53%
    12:00 +28°C° 0 mm 2 mps 753 mmHg 51%
    13:00 +29°C° 0 mm 1 mps 753 mmHg 49%
    14:00 +30°C° 0 mm 1 mps 752 mmHg 47%
    15:00 +30°C° 0.1 mm 1 mps 752 mmHg 47%
    16:00 +30°C° 0.1 mm 2 mps 752 mmHg 48%
    17:00 +30°C° 0.1 mm 2 mps 752 mmHg 49%
    18:00 +28°C° 0.1 mm 2 mps 753 mmHg 55%
    19:00 +27°C° 0.1 mm 2 mps 753 mmHg 61%
    20:00 +26°C° 0.1 mm 2 mps 753 mmHg 66%
    21:00 +25°C° 0 mm 2 mps 754 mmHg 68%
    22:00 +24°C° 0 mm 2 mps 754 mmHg 70%
    23:00 +24°C° 0 mm 2 mps 754 mmHg 71%

    29 June, Friday

    Time Temperature Precipitation Wind Pressure Humidity
    00:00 +23°C° 0 mm 2 mps 754 mmHg 72%
    01:00 +23°C° 0 mm 2 mps 754 mmHg 73%
    02:00 +21°C° 0 mm 2 mps 754 mmHg 75%
    03:00 +21°C° 0 mm 2 mps 754 mmHg 76%
    04:00 +21°C° 0 mm 2 mps 754 mmHg 76%
    05:00 +20°C° 0 mm 2 mps 754 mmHg 77%
    06:00 +23°C° 0 mm 1 mps 754 mmHg 72%
    07:00 +24°C° 0 mm 1 mps 754 mmHg 67%
    08:00 +26°C° 0 mm 1 mps 754 mmHg 62%
    09:00 +27°C° 0 mm 1 mps 754 mmHg 57%
    10:00 +29°C° 0 mm 1 mps 754 mmHg 52%
    11:00 +30°C° 0 mm 1 mps 754 mmHg 47%
    12:00 +31°C° 0 mm 2 mps 754 mmHg 45%
    13:00 +32°C° 0 mm 2 mps 753 mmHg 42%
    14:00 +33°C° 0 mm 3 mps 753 mmHg 40%
    15:00 +33°C° 0 mm 3 mps 753 mmHg 41%
    16:00 +33°C° 0 mm 3 mps 753 mmHg 43%
    17:00 +33°C° 0 mm 3 mps 753 mmHg 44%
    18:00 +30°C° 0 mm 3 mps 753 mmHg 51%
    19:00 +28°C° 0 mm 3 mps 753 mmHg 59%
    20:00 +27°C° 0 mm 3 mps 753 mmHg 66%
    21:00 +26°C° 0 mm 3 mps 754 mmHg 68%
    22:00 +25°C° 0 mm 2 mps 754 mmHg 70%
    23:00 +25°C° 0 mm 2 mps 754 mmHg 72%

    30 June, Saturday

    Time Temperature Precipitation Wind Pressure Humidity
    00:00 +24°C° 0 mm 2 mps 754 mmHg 73%
    01:00 +24°C° 0 mm 2 mps 754 mmHg 73%
    02:00 +23°C° 0 mm 2 mps 754 mmHg 74%
    03:00 +23°C° 0 mm 2 mps 754 mmHg 75%
    04:00 +21°C° 0 mm 2 mps 754 mmHg 76%
    05:00 +21°C° 0 mm 2 mps 754 mmHg 76%
    06:00 +23°C° 0 mm 2 mps 754 mmHg 71%
    07:00 +25°C° 0 mm 2 mps 754 mmHg 66%
    08:00 +26°C° 0 mm 2 mps 753 mmHg 61%
    09:00 +28°C° 0 mm 2 mps 753 mmHg 55%
    10:00 +29°C° 0 mm 2 mps 753 mmHg 50%
    11:00 +31°C° 0 mm 1 mps 753 mmHg 44%
    12:00 +32°C° 0 mm 1 mps 753 mmHg 42%
    13:00 +32°C° 0 mm 2 mps 752 mmHg 40%
    14:00 +34°C° 0 mm 2 mps 752 mmHg 38%
    15:00 +34°C° 0 mm 2 mps 752 mmHg 41%
    16:00 +32°C° 0 mm 2 mps 751 mmHg 43%
    17:00 +33°C° 0 mm 3 mps 751 mmHg 45%
    18:00 +30°C° 0.1 mm 2 mps 752 mmHg 51%
    19:00 +29°C° 0.1 mm 2 mps 752 mmHg 56%
    20:00 +27°C° 0.1 mm 2 mps 752 mmHg 61%
    21:00 +26°C° 1.2 mm 2 mps 752 mmHg 67%
    22:00 +25°C° 1.2 mm 3 mps 753 mmHg 73%
    23:00 +24°C° 1.2 mm 3 mps 753 mmHg 79%
    Show more